Roseau, MN

8:09 PM CST on December 17, 2017 (GMT -0600)
Roseau Municipal-Billberg

Weather History for KROX - November, 2012

Change the Weather History Date:

Friday, November 9, 2012

  Actual Average Record
Temperature  
Mean Temperature 28 °F -  
Max Temperature 30 °F 34 °F 64 °F (2016)
Min Temperature 26 °F 19 °F -5 °F (2017)
Degree Days  
Heating Degree Days 37    
Moisture  
Dew Point 21 °F    
Average Humidity 75    
Maximum Humidity 86    
Minimum Humidity 64    
Precipitation  
Precipitation 0.00 in - - ()
Sea Level Pressure  
Sea Level Pressure 30.18 in    
Wind  
Wind Speed 14 mph (NE)    
Max Wind Speed 22 mph    
Max Gust Speed 28 mph    
Visibility 10 miles    
Events      
Averages and records for this station are not official NWS values.
T = Trace of Precipitation, MM = Missing Value Source: NWS Daily Summary

Daily Weather History Graph

Daily Weather History Graph

Search for Another Location

Airport or City:

Trip Planner

Search our weather history database for the weather conditions in past years. The results will help you decide how hot, cold, wet, or windy it might be!

Date:

Astronomy

Nov. 09, 2012 Rise Set
Actual Time 7:23 AM CST 4:49 PM CST
Civil Twilight 6:49 AM CST 5:23 PM CST
Nautical Twilight 6:11 AM CST 6:01 PM CST
Astronomical Twilight 5:34 AM CST 6:38 PM CST
Moon 2:00 AM CST (11/9) 2:23 PM CST (11/9)
Length of Visible Light 10h 34m
Length of Day
9h 26m
Waning Crescent, 23% of the Moon is Illuminated
Nov 9
Waning Crescent
Nov 13
New
Nov 20
First Quarter
Nov 28
Full
Dec 6
Last Quarter

Hourly Weather History & Observations

Time (CST) Temp. Windchill Dew Point Humidity Pressure Visibility Wind Dir Wind Speed Gust Speed Precip Events Conditions
12:14 AM 30.2 °F 22.6 °F 24.8 °F 80% 30.21 in 10.0 mi NNE 8.1 mph - N/A   Overcast
12:34 AM 30.2 °F 22.6 °F 24.8 °F 80% 30.21 in 10.0 mi North 8.1 mph - N/A   Overcast
12:54 AM 30.2 °F 20.8 °F 24.8 °F 80% 30.21 in 10.0 mi North 11.5 mph - N/A   Overcast
1:14 AM 30.2 °F 20.2 °F 24.8 °F 80% 30.22 in 10.0 mi North 12.7 mph - N/A   Overcast
1:34 AM 28.4 °F 17.5 °F 24.8 °F 86% 30.22 in 10.0 mi North 13.8 mph 18.4 mph N/A   Overcast
1:48 AM 28.4 °F 18.0 °F 23.0 °F 80% 30.23 in 10.0 mi North 12.7 mph - N/A   Overcast
2:01 AM 28.4 °F 18.0 °F 23.0 °F 80% 30.23 in 10.0 mi North 12.7 mph 18.4 mph N/A   Mostly Cloudy
2:21 AM 28.4 °F 18.0 °F 23.0 °F 80% 30.24 in 10.0 mi North 12.7 mph - N/A   Mostly Cloudy
2:41 AM 28.4 °F 18.5 °F 23.0 °F 80% 30.24 in 10.0 mi North 11.5 mph - N/A   Overcast
3:01 AM 28.4 °F 18.5 °F 23.0 °F 80% 30.23 in 10.0 mi North 11.5 mph - N/A   Overcast
3:21 AM 26.6 °F 15.7 °F 21.2 °F 80% 30.23 in 10.0 mi North 12.7 mph - N/A   Overcast
3:41 AM 26.6 °F 16.2 °F 21.2 °F 80% 30.22 in 10.0 mi NNE 11.5 mph - N/A   Overcast
4:01 AM 28.4 °F 17.0 °F 21.2 °F 74% 30.22 in 10.0 mi North 15.0 mph - N/A   Overcast
4:21 AM 28.4 °F 17.5 °F 21.2 °F 74% 30.22 in 10.0 mi NNE 13.8 mph - N/A   Mostly Cloudy
4:41 AM 28.4 °F 18.5 °F 21.2 °F 74% 30.23 in 10.0 mi NNE 11.5 mph - N/A   Mostly Cloudy
5:01 AM 28.4 °F 19.7 °F 21.2 °F 74% 30.24 in 10.0 mi NNE 9.2 mph - N/A   Mostly Cloudy
5:21 AM 26.6 °F 16.2 °F 21.2 °F 80% 30.23 in 10.0 mi North 11.5 mph - N/A   Mostly Cloudy
5:41 AM 28.4 °F 17.5 °F 21.2 °F 74% 30.23 in 10.0 mi NNE 13.8 mph - N/A   Mostly Cloudy
6:01 AM 28.4 °F 19.7 °F 21.2 °F 74% 30.23 in 10.0 mi NNE 9.2 mph - N/A   Overcast
6:21 AM 28.4 °F 17.0 °F 21.2 °F 74% 30.22 in 10.0 mi NNE 15.0 mph - N/A   Overcast
6:41 AM 26.6 °F 14.3 °F 21.2 °F 80% 30.21 in 10.0 mi NNE 16.1 mph - N/A   Overcast
7:01 AM 26.6 °F 15.7 °F 21.2 °F 80% 30.22 in 10.0 mi North 12.7 mph - N/A   Overcast
7:21 AM 26.6 °F 16.2 °F 21.2 °F 80% 30.22 in 10.0 mi NNE 11.5 mph - N/A   Overcast
7:41 AM 26.6 °F 15.2 °F 21.2 °F 80% 30.22 in 10.0 mi North 13.8 mph - N/A   Overcast
8:01 AM 26.6 °F 16.8 °F 21.2 °F 80% 30.22 in 10.0 mi North 10.4 mph - N/A   Overcast
8:21 AM 26.6 °F 15.2 °F 21.2 °F 80% 30.22 in 10.0 mi NNE 13.8 mph 18.4 mph N/A   Overcast
8:41 AM 26.6 °F 15.7 °F 21.2 °F 80% 30.23 in 10.0 mi North 12.7 mph - N/A   Overcast
9:01 AM 28.4 °F 19.1 °F 21.2 °F 74% 30.23 in 10.0 mi North 10.4 mph - N/A   Scattered Clouds
9:21 AM 28.4 °F 18.0 °F 21.2 °F 74% 30.23 in 10.0 mi NNE 12.7 mph - N/A   Scattered Clouds
9:41 AM 28.4 °F 17.5 °F 23.0 °F 80% 30.23 in 10.0 mi NNE 13.8 mph - N/A   Mostly Cloudy
10:01 AM 28.4 °F 17.0 °F 23.0 °F 80% 30.23 in 10.0 mi NNE 15.0 mph - N/A   Mostly Cloudy
10:21 AM 28.4 °F 18.0 °F 23.0 °F 80% 30.24 in 10.0 mi NE 12.7 mph - N/A   Mostly Cloudy
11:21 AM 28.4 °F 18.0 °F 23.0 °F 80% 30.23 in 10.0 mi NNE 12.7 mph - N/A   Clear
12:01 PM 28.4 °F 16.6 °F 23.0 °F 80% 30.22 in 10.0 mi NE 16.1 mph 20.7 mph N/A   Scattered Clouds
12:33 PM 28.4 °F 15.4 °F 23.0 °F 80% 30.20 in 10.0 mi ENE 19.6 mph 24.2 mph N/A   Mostly Cloudy
12:34 PM 30.2 °F 18.1 °F 23.0 °F 75% 30.20 in 10.0 mi ENE 18.4 mph 24.2 mph N/A   Mostly Cloudy
12:54 PM 30.2 °F 17.4 °F 23.0 °F 75% 30.19 in 10.0 mi ENE 20.7 mph - N/A   Mostly Cloudy
1:14 PM 28.4 °F 15.4 °F 21.2 °F 74% 30.20 in 10.0 mi NE 19.6 mph - N/A   Mostly Cloudy
1:34 PM 28.4 °F 15.4 °F 23.0 °F 80% 30.19 in 10.0 mi ENE 19.6 mph - N/A   Mostly Cloudy
1:54 PM 28.4 °F 15.4 °F 23.0 °F 80% 30.18 in 10.0 mi NE 19.6 mph - N/A   Mostly Cloudy
2:15 PM 28.4 °F 15.8 °F 21.2 °F 74% 30.17 in 10.0 mi NE 18.4 mph - N/A   Mostly Cloudy
2:34 PM 28.4 °F 16.2 °F 23.0 °F 80% 30.17 in 10.0 mi ENE 17.3 mph - N/A   Mostly Cloudy
2:54 PM 28.4 °F 16.2 °F 21.2 °F 74% 30.16 in 10.0 mi ENE 17.3 mph 27.6 mph N/A   Mostly Cloudy
3:15 PM 28.4 °F 14.7 °F 21.2 °F 74% 30.16 in 10.0 mi ENE 21.9 mph 27.6 mph N/A   Scattered Clouds
3:34 PM 28.4 °F 15.1 °F 21.2 °F 74% 30.16 in 10.0 mi ENE 20.7 mph 26.5 mph N/A   Scattered Clouds
3:54 PM 28.4 °F 15.1 °F 21.2 °F 74% 30.16 in 10.0 mi NE 20.7 mph 24.2 mph N/A   Scattered Clouds
4:15 PM 28.4 °F 15.4 °F 21.2 °F 74% 30.16 in 10.0 mi ENE 19.6 mph 24.2 mph N/A   Scattered Clouds
4:34 PM 28.4 °F 17.0 °F 21.2 °F 74% 30.17 in 10.0 mi ENE 15.0 mph - N/A   Mostly Cloudy
4:54 PM 28.4 °F 18.0 °F 21.2 °F 74% 30.17 in 10.0 mi ENE 12.7 mph - N/A   Mostly Cloudy
5:15 PM 28.4 °F 17.5 °F 21.2 °F 74% 30.17 in 10.0 mi ENE 13.8 mph - N/A   Mostly Cloudy
5:34 PM 28.4 °F 17.0 °F 21.2 °F 74% 30.16 in 10.0 mi ENE 15.0 mph 20.7 mph N/A   Overcast
5:54 PM 30.2 °F 18.1 °F 21.2 °F 69% 30.16 in 10.0 mi ENE 18.4 mph 23.0 mph N/A   Mostly Cloudy
6:15 PM 30.2 °F 18.5 °F 21.2 °F 69% 30.15 in 10.0 mi ENE 17.3 mph - N/A   Overcast
6:34 PM 30.2 °F 18.1 °F 21.2 °F 69% 30.14 in 10.0 mi ENE 18.4 mph - N/A   Mostly Cloudy
6:54 PM 30.2 °F 18.1 °F 21.2 °F 69% 30.14 in 10.0 mi ENE 18.4 mph - N/A   Mostly Cloudy
7:15 PM 30.2 °F 17.4 °F 21.2 °F 69% 30.12 in 10.0 mi East 20.7 mph - N/A   Scattered Clouds
7:34 PM 30.2 °F 17.1 °F 21.2 °F 69% 30.12 in 10.0 mi ENE 21.9 mph 25.3 mph N/A   Mostly Cloudy
7:54 PM 30.2 °F 17.8 °F 21.2 °F 69% 30.12 in 10.0 mi East 19.6 mph 24.2 mph N/A   Mostly Cloudy
8:15 PM 30.2 °F 18.9 °F 21.2 °F 69% 30.12 in 10.0 mi East 16.1 mph 23.0 mph N/A   Mostly Cloudy
8:34 PM 30.2 °F 17.4 °F 19.4 °F 64% 30.11 in 10.0 mi East 20.7 mph 27.6 mph N/A   Mostly Cloudy
9:14 PM 30.2 °F 18.1 °F 19.4 °F 64% 30.11 in 10.0 mi East 18.4 mph 25.3 mph N/A   Overcast
9:34 PM 30.2 °F 17.4 °F 19.4 °F 64% 30.11 in 10.0 mi East 20.7 mph 25.3 mph N/A   Overcast
9:54 PM 30.2 °F 17.1 °F 19.4 °F 64% 30.11 in 10.0 mi East 21.9 mph 27.6 mph N/A   Mostly Cloudy
10:14 PM 28.4 °F 14.7 °F 17.6 °F 64% 30.10 in 10.0 mi East 21.9 mph 26.5 mph N/A   Scattered Clouds
10:34 PM 28.4 °F 15.4 °F 19.4 °F 69% 30.09 in 10.0 mi East 19.6 mph - N/A   Clear
10:54 PM 28.4 °F 15.4 °F 17.6 °F 64% 30.08 in 10.0 mi East 19.6 mph 24.2 mph N/A   Clear
11:14 PM 28.4 °F 15.1 °F 17.6 °F 64% 30.08 in 10.0 mi East 20.7 mph 26.5 mph N/A   Mostly Cloudy
11:34 PM 28.4 °F 14.7 °F 17.6 °F 64% 30.07 in 10.0 mi East 21.9 mph 26.5 mph N/A   Overcast
11:54 PM 28.4 °F 15.4 °F 17.6 °F 64% 30.08 in 10.0 mi East 19.6 mph - N/A   Mostly Cloudy